Weather History for Garrison, ND

Change the Weather History Date:

Friday, January 17, 2014

  Actual Average Record
Temperature  
Mean Temperature 18 °F -  
Max Temperature 32 °F 16 °F - (-1)
Min Temperature 4 °F 0 °F - (-1)
Degree Days  
Heating Degree Days 47    
Month to date heating degree days 918  
Moisture  
Dew Point 17 °F    
Average Humidity 87    
Maximum Humidity 96    
Minimum Humidity 78    
Precipitation  
Precipitation 0.00 in - - ()
Month to date precipitation 0.32  
Year to date precipitation 0.32  
Sea Level Pressure  
Sea Level Pressure 29.94 in    
Wind  
Wind Speed 3 mph (WSW)    
Max Wind Speed 14 mph    
Max Gust Speed 17 mph    
Averages and records for this station are not official NWS values.
T = Trace of Precipitation, MM = Missing Value Source: NWS Daily Summary

Daily Weather History Graph

Daily Weather History Graph

Search for Another Location

Airport:

Trip Planner

Search our weather history database for the weather conditions in past years. The results will help you decide how hot, cold, wet, or windy it might be!

Date:

Astronomy

Jan. 17, 2014 Rise Set
Actual Time 8:27 AM CST 5:24 PM CST
Civil Twilight 7:53 AM CST 5:58 PM CST
Nautical Twilight 7:15 AM CST 6:37 PM CST
Astronomical Twilight 6:38 AM CST 7:13 PM CST
Moon 7:23 PM CST (1/17) 8:47 AM CST (1/17)
Length of Visible Light 10h 05m
Length of Day
8h 56m
Full, 98% of the Moon is Illuminated
Jan 17
Full
Jan 23
Last Quarter
Jan 30
New
Feb 6
First Quarter
Feb 14
Full

Hourly Weather History & Observations

Time (CST) Temp. Windchill Dew Point Humidity Pressure Visibility Wind Dir Wind Speed Gust Speed Precip Events Conditions
12:52 AM 7.0 °F 0.1 °F 3.9 °F 87% 30.24 in - West 3.5 mph - N/A   Unknown
1:52 AM 6.1 °F -0.9 °F 3.0 °F 87% 30.22 in - SW 3.5 mph - N/A   Unknown
2:52 AM 7.0 °F -1.7 °F 5.0 °F 92% 30.20 in - WSW 4.6 mph - N/A   Unknown
3:52 AM 7.0 °F - 3.9 °F 87% 30.17 in - Calm Calm - N/A   Unknown
4:52 AM 7.0 °F 0.1 °F 5.0 °F 92% 30.15 in - SSW 3.5 mph - N/A   Unknown
5:52 AM 8.1 °F - 5.0 °F 87% 30.13 in - Calm Calm - N/A   Unknown
6:52 AM 9.0 °F - 6.1 °F 88% 30.11 in - Calm Calm - N/A   Unknown
7:52 AM 6.1 °F -2.8 °F 3.9 °F 91% 30.07 in - SSW 4.6 mph - N/A   Unknown
8:52 AM 10.9 °F - 9.0 °F 92% 30.04 in - Calm Calm - N/A   Unknown
9:52 AM 14.0 °F - 12.0 °F 92% 30.02 in - Calm Calm - N/A   Unknown
10:52 AM 18.0 °F - 15.1 °F 88% 30.00 in - Calm Calm - N/A   Unknown
11:52 AM 21.0 °F 14.6 °F 18.0 °F 88% 29.96 in - SSE 4.6 mph - N/A   Unknown
12:52 PM 25.0 °F 19.3 °F 19.9 °F 81% 29.92 in - South 4.6 mph - N/A   Unknown
1:52 PM 28.0 °F 21.7 °F 23.0 °F 81% 29.85 in - SSW 5.8 mph - N/A   Unknown
2:52 PM 30.9 °F 24.3 °F 24.1 °F 76% 29.84 in - WSW 6.9 mph - N/A   Unknown
3:52 PM 30.9 °F 25.2 °F 26.1 °F 82% 29.80 in - SSW 5.8 mph - N/A   Unknown
4:52 PM 30.9 °F 25.2 °F 26.1 °F 82% 29.77 in - SSW 5.8 mph - N/A   Unknown
5:52 PM 28.9 °F 19.2 °F 24.1 °F 82% 29.75 in - West 11.5 mph - N/A   Unknown
6:52 PM 34.0 °F 22.4 °F 27.0 °F 75% 29.73 in - WNW 20.7 mph - 0.01 in   Unknown
7:52 PM 36.0 °F 23.7 °F 28.9 °F 76% 29.71 in - WNW 26.5 mph 34.5 mph N/A   Unknown
8:52 PM 37.0 °F 24.5 °F 28.9 °F 73% 29.69 in - WNW 29.9 mph 39.1 mph N/A   Unknown
9:52 PM 35.1 °F 21.6 °F 28.0 °F 76% 29.69 in - WNW 31.1 mph 40.3 mph N/A   Unknown
10:52 PM 34.0 °F 20.3 °F 28.9 °F 82% 29.71 in - NW 29.9 mph 38.0 mph N/A   Unknown
11:52 PM 35.1 °F 22.0 °F 28.9 °F 78% 29.69 in - NW 28.8 mph 38.0 mph N/A   Unknown